CDT,Max TemperatureF,Mean TemperatureF,Min TemperatureF,Max Dew PointF,MeanDew PointF,Min DewpointF,Max Humidity, Mean Humidity, Min Humidity, Max Sea Level PressureIn, Mean Sea Level PressureIn, Min Sea Level PressureIn, Max VisibilityMiles, Mean VisibilityMiles, Min VisibilityMiles, Max Wind SpeedMPH, Mean Wind SpeedMPH, Max Gust SpeedMPH,PrecipitationIn, CloudCover, Events, WindDirDegrees
2012-9-1,93,85,77,77,74,68,94,73,52,30.18,30.12,30.05,10,10,8,16,5,20,0.00,4,,194
2012-9-2,92,85,77,76,74,72,94,75,56,30.11,30.05,29.96,10,10,9,16,5,25,0.00,4,,240
2012-9-3,92,85,77,77,75,73,91,76,60,30.04,29.98,29.91,10,10,9,12,5,37,0.00,3,,237
2012-9-4,93,84,75,76,74,72,94,77,60,29.97,29.91,29.84,10,8,1,22,7,28,0.88,4,Rain-Thunderstorm,216
2012-9-5,92,83,73,79,74,72,94,77,60,29.91,29.87,29.83,10,7,1,16,3,31,0.00,4,,28
2012-9-6,91,83,74,77,74,73,100,80,59,29.98,29.93,29.88,10,9,4,14,3,24,0.00,2,,79
2012-9-7,93,84,75,75,73,69,94,72,49,29.96,29.89,29.82,10,10,6,16,3,,0.00,1,,120
2012-9-8,93,82,71,76,72,67,94,77,59,29.96,29.87,29.82,10,10,3,21,5,29,0.08,3,Rain-Thunderstorm,342
2012-9-9,84,73,61,66,59,55,93,67,40,30.06,30.01,29.95,10,10,10,20,4,29,0.00,0,,357
2012-9-10,87,72,57,64,59,55,97,66,35,30.12,30.08,30.06,10,10,10,13,2,,0.00,0,,42
2012-9-11,86,73,60,67,61,57,97,69,40,30.17,30.13,30.08,10,10,7,13,3,,0.00,1,,103
2012-9-12,88,76,63,73,68,61,93,77,61,30.18,30.13,30.08,10,8,2,15,4,26,0.16,2,Rain,114
2012-9-13,89,78,66,71,67,63,97,70,43,30.19,30.15,30.09,10,9,5,14,3,31,0.00,1,,101
2012-9-14,89,78,66,69,66,62,97,70,43,30.18,30.14,30.09,10,10,6,8,2,,0.00,0,,54
2012-9-15,90,77,64,71,66,62,93,70,46,30.16,30.10,30.04,10,9,5,12,3,,T,2,,85
2012-9-16,89,79,69,73,71,69,94,75,55,30.07,30.01,29.95,10,10,7,14,3,,0.04,4,Rain,112
2012-9-17,76,74,71,74,72,69,93,90,87,29.97,29.84,29.72,10,5,0,10,3,15,1.19,8,Fog-Rain-Thunderstorm,119
2012-9-18,83,74,64,70,67,62,97,80,62,30.03,29.86,29.75,10,10,2,18,6,24,0.07,5,Rain,318
2012-9-19,79,69,58,62,56,53,93,68,42,30.13,30.07,30.03,10,10,7,10,4,,0.00,0,,4
2012-9-20,83,70,56,66,59,54,93,69,45,30.12,30.06,30.01,10,10,7,8,1,,0.00,0,,320
2012-9-21,87,73,59,68,63,58,97,73,48,30.07,30.03,29.97,10,9,5,8,1,,0.00,0,,89
2012-9-22,90,77,64,71,66,62,100,72,44,30.10,30.06,30.01,10,8,4,7,1,,0.00,0,,360
2012-9-23,90,77,64,71,66,62,93,69,44,30.17,30.14,30.10,10,7,2,9,1,28,0.00,0,,75
2012-9-24,85,74,63,68,62,55,90,66,42,30.20,30.15,30.09,10,10,9,5,1,,0.00,0,,21
2012-9-25,84,73,61,65,62,58,97,74,51,30.15,30.11,30.06,10,10,9,9,2,14,0.00,0,,111
2012-9-26,88,74,59,70,64,56,97,71,45,30.15,30.11,30.06,10,10,9,13,1,,0.00,1,,112
2012-9-27,89,77,65,72,66,63,97,72,46,30.18,30.12,30.04,10,7,0,9,2,15,0.00,3,Fog,121
2012-9-28,90,78,65,70,67,63,93,69,44,30.10,30.05,29.98,10,10,8,10,2,14,0.00,1,,108
2012-9-29,78,73,68,74,70,66,93,86,79,30.00,29.93,29.88,10,5,1,14,2,,2.49,7,Rain,56
2012-9-30,79,75,70,73,71,66,100,94,87,29.89,29.71,29.55,10,7,1,20,8,26,0.98,7,Rain,140